Theta_e
308 308 315 315 317 316 317 324 331 334 335 335 335 335 335 336 339 345 339 339 340 340 339 338 337 336 335 335 335 335 334 333 331 330 329 328 327 325 322 319 320 320 319 320 318 318 318 318 319
308 313 316 313 317 319 323 328 336 334 332 331 332 335 339 344 341 340 339 339 339 339 339 338 337 337 336 334 333 332 331 330 330 329 326 324 322 319 319 319 317 314 311 312 312 312 311 311 310
310 312 313 314 315 318 328 327 328 330 331 331 331 329 331 340 339 339 340 339 338 339 339 338 338 338 337 335 333 331 332 331 328 323 321 320 320 320 319 314 311 310 310 310 310 309 309 309 308
317 313 310 313 314 314 329 326 331 332 331 330 329 333 328 336 340 341 341 338 337 338 338 338 339 337 336 335 333 332 326 323 322 321 320 320 319 318 317 313 310 309 309 309 309 309 308 308 308
318 311 312 313 318 328 326 326 329 332 333 330 329 331 331 341 342 341 338 336 336 338 338 338 336 334 332 330 327 323 322 321 319 319 319 319 318 317 316 311 310 309 310 312 312 313 312 310 310
313 311 313 319 331 325 325 326 328 333 329 329 330 330 327 338 339 337 336 335 334 334 334 330 325 322 321 321 320 320 319 319 319 319 320 322 322 320 320 320 319 319 320 318 319 319 318 318 316
314 313 314 314 321 326 321 320 326 333 333 331 326 329 323 327 332 328 326 323 323 323 320 319 318 318 318 318 318 318 319 320 320 322 326 326 325 324 323 324 323 321 321 321 320 320 320 320 319
312 313 314 313 327 323 316 315 317 323 324 327 326 327 325 321 327 324 321 318 318 318 320 319 319 314 310 312 316 317 320 324 325 328 328 327 326 326 326 325 324 321 321 321 319 320 320 321 320
312 313 312 315 317 318 313 317 315 320 326 327 325 324 323 325 327 326 323 321 320 320 325 326 325 321 322 318 323 326 328 328 328 329 328 327 327 327 326 326 324 321 321 320 318 319 319 320 319
312 311 312 313 314 313 312 313 314 324 328 328 325 323 321 323 325 324 324 324 326 326 327 328 327 326 326 324 326 327 328 329 329 329 328 328 327 328 326 325 320 319 318 317 318 319 318 317 318
312 312 311 311 311 310 311 312 314 320 328 328 326 323 321 320 321 322 323 327 328 329 329 328 327 326 327 327 326 327 328 329 329 328 327 326 327 324 322 320 318 318 317 317 317 317 316 316 317
313 311 312 313 311 310 311 310 312 314 318 327 325 323 322 321 321 321 323 327 328 329 328 327 325 327 327 326 327 327 328 330 329 328 325 324 324 322 320 318 318 318 317 317 317 317 317 316 317
311 312 311 311 312 312 310 311 312 314 320 326 325 325 324 323 322 323 324 326 329 329 328 327 327 327 327 327 326 326 327 328 327 325 323 319 322 319 319 319 318 318 318 318 318 317 316 316 318
312 311 311 311 313 314 313 315 315 313 317 328 327 326 325 325 324 324 323 324 328 331 329 328 323 326 327 326 325 326 323 324 324 321 319 316 318 319 319 318 318 316 315 314 314 313 314 314 316
311 312 312 313 314 315 314 316 315 311 319 329 329 328 326 326 326 325 325 323 328 332 331 328 322 323 325 326 325 323 321 322 321 320 319 319 319 319 318 316 312 310 311 310 310 310 311 311 310
314 313 314 315 314 316 312 313 314 311 315 323 326 326 325 324 325 326 325 326 327 333 332 328 327 324 325 326 323 324 319 320 320 319 319 319 318 316 315 311 310 311 310 309 308 308 308 307 306
312 313 315 317 314 315 315 315 313 310 312 314 315 316 318 320 322 324 324 325 330 331 329 327 324 326 325 324 322 321 320 318 317 318 316 315 314 313 312 311 310 309 307 307 307 306 305 304 303
315 315 315 315 316 316 315 315 315 313 312 313 313 320 322 322 321 322 323 328 332 330 328 327 327 325 324 325 322 320 317 316 315 314 313 312 310 310 309 309 307 306 306 305 305 305 304 303 303
316 316 315 316 316 317 314 316 316 314 318 319 322 322 321 319 318 318 319 320 326 327 324 324 326 325 324 316 315 315 314 313 312 311 311 310 310 309 308 306 304 304 304 305 304 303 303 303 305
318 317 317 316 316 314 314 316 315 317 316 320 321 320 320 318 317 316 317 319 318 319 316 315 315 315 315 314 314 314 313 313 313 311 311 308 307 306 305 303 302 301 301 301 301 302 304 305 305
320 319 319 319 317 315 316 316 318 317 317 317 317 318 319 318 317 316 315 315 315 315 315 314 314 314 314 314 313 313 313 313 312 309 307 306 306 305 303 301 300 299 301 302 303 303 304 304 304
322 320 319 319 316 314 314 318 318 317 318 318 317 317 318 318 317 316 315 315 315 314 314 314 314 314 314 314 314 313 313 312 310 309 307 305 305 303 301 300 300 300 301 302 301 301 301 301 302
321 320 319 319 318 319 318 317 317 318 319 318 316 316 316 316 316 314 316 316 316 315 315 315 314 314 314 314 313 313 311 309 308 306 306 305 304 301 300 299 300 300 299 300 300 300 300 299 299
318 321 321 320 319 321 322 320 319 319 318 318 316 315 314 314 313 315 316 317 316 316 316 315 315 314 314 313 312 311 309 308 306 304 303 302 300 300 299 299 298 297 298 297 297 297 297 297 296
317 321 321 324 322 322 324 324 322 319 319 319 317 315 314 312 312 313 315 316 316 316 315 315 314 312 313 312 310 309 307 306 305 304 303 301 300 300 298 297 297 298 297 295 295 295 295 295 294
321 319 319 328 322 320 319 323 320 318 319 318 316 315 314 312 311 311 311 313 313 313 313 313 311 309 309 308 307 306 305 305 304 303 301 300 300 299 296 294 296 295 295 294 295 294 293 293 292
321 317 317 319 316 316 319 320 318 317 317 317 317 316 313 311 310 310 311 311 312 311 311 310 309 308 307 307 306 305 303 303 302 301 301 300 299 298 294 294 294 294 294 292 293 291 290 291 291
315 316 320 315 319 321 317 323 321 320 319 315 314 312 311 311 310 309 309 309 310 309 308 308 307 307 306 306 305 304 303 302 302 301 301 299 298 296 295 294 294 292 290 290 289 289 289 289 289
317 319 318 316 314 317 316 316 314 320 318 314 312 311 311 309 309 308 308 307 307 306 304 304 304 305 306 305 305 304 303 302 301 300 299 298 296 295 294 294 292 290 289 289 289 288 289 288 287
317 319 316 314 317 312 312 314 314 314 313 313 313 312 309 309 308 307 307 306 305 305 304 304 303 303 304 303 304 303 302 301 299 298 298 297 296 295 294 292 290 290 289 289 288 288 288 287 286
Wind_Speed
7 3 5 2 3 2 3 5 4 13 7 9 11 12 9 7 2 6 17 23 31 28 24 22 21 20 20 19 19 18 17 16 15 14 13 13 12 12 13 13 12 12 13 14 14 13 13 14 14
3 3 3 1 4 1 4 2 14 14 13 11 15 15 14 7 7 13 13 25 30 29 25 22 21 21 20 19 18 18 17 15 13 13 13 13 12 12 12 13 13 13 14 15 15 14 14 14 14
1 2 3 3 3 5 5 2 15 8 11 6 6 7 5 11 11 10 24 28 28 28 25 23 21 20 19 18 17 16 15 14 13 12 13 12 11 12 12 12 12 13 14 14 14 14 15 14 14
3 4 3 3 6 8 3 5 18 17 14 12 13 8 5 11 8 20 30 30 30 28 25 23 21 20 19 17 16 14 14 13 13 12 12 12 11 11 11 12 12 13 13 13 13 13 14 13 13
2 3 2 3 6 4 5 4 19 8 7 10 11 5 5 8 31 36 31 29 31 27 24 22 20 18 16 15 14 14 14 13 13 12 11 12 12 11 12 13 11 11 12 12 13 14 14 12 12
2 3 4 2 7 7 2 5 12 15 19 16 17 11 6 24 33 31 30 29 29 27 24 21 18 17 16 16 16 15 14 13 13 13 13 12 13 13 12 12 12 13 12 11 14 15 14 14 13
5 3 3 5 6 7 2 5 9 14 8 4 9 12 6 12 31 32 30 27 26 25 23 21 19 17 15 14 14 14 14 15 14 14 13 12 12 12 12 11 11 13 12 12 15 14 14 13 13
3 2 5 3 11 3 5 5 7 8 4 9 14 6 11 16 34 33 28 26 25 24 22 22 20 17 15 15 15 15 16 15 15 12 10 8 8 10 8 6 8 10 9 9 13 12 12 11 14
4 2 4 4 7 10 7 11 5 3 9 2 2 9 23 38 35 32 31 28 27 24 23 21 18 17 16 17 16 16 14 12 12 8 8 6 5 4 5 3 6 8 8 7 10 10 10 9 13
4 4 7 8 6 5 6 10 6 6 7 6 10 13 25 35 33 27 23 23 28 27 25 22 19 16 16 16 14 13 13 11 9 8 7 4 1 1 2 2 5 7 8 8 9 8 9 12 13
2 3 4 7 5 9 8 6 4 10 3 18 21 16 17 22 23 24 25 33 32 30 27 24 20 18 15 14 14 13 12 12 10 6 6 3 5 4 4 3 4 6 8 10 9 8 12 17 15
3 3 5 2 3 4 9 8 6 6 8 19 23 22 14 12 17 22 25 28 29 33 30 25 21 17 16 13 14 12 11 11 10 9 6 6 5 3 1 2 5 7 10 11 11 14 17 19 18
6 4 6 6 8 3 4 4 6 3 15 16 18 18 17 16 22 29 34 33 32 34 32 26 22 18 17 17 17 17 14 15 13 9 4 4 4 2 1 2 5 8 11 12 14 17 20 20 20
5 7 6 6 5 3 5 1 5 1 13 17 19 16 16 17 23 25 27 30 35 34 32 26 24 20 16 17 15 16 13 13 10 7 5 4 4 3 1 2 6 9 14 17 19 19 19 19 19
9 6 3 1 3 2 5 3 3 8 16 19 19 17 15 17 25 25 33 31 38 37 36 31 27 20 16 15 10 12 11 11 11 10 9 8 7 6 4 2 6 13 18 19 20 20 19 20 22
5 6 3 3 4 1 6 7 5 6 13 16 15 14 13 13 20 23 18 25 32 40 38 34 26 19 13 11 9 10 10 8 8 12 10 9 7 4 0 5 12 20 19 18 21 21 22 24 25
7 2 5 3 7 3 2 5 5 8 12 12 11 4 6 9 14 14 10 17 31 35 36 25 16 6 14 11 10 11 10 6 8 13 12 8 5 6 9 11 15 14 15 15 17 20 24 25 27
4 4 2 5 3 2 4 3 7 4 4 4 9 13 15 16 13 23 26 23 25 28 29 17 12 15 13 10 10 9 10 17 13 12 11 8 7 8 10 12 10 11 12 15 19 21 23 26 28
4 2 6 3 2 4 5 3 5 8 11 15 15 16 17 15 18 29 33 32 31 26 22 17 13 16 10 14 14 15 16 17 15 13 12 9 9 10 11 12 13 14 15 16 18 23 25 25 21
4 8 4 5 6 4 7 7 6 7 7 16 18 16 15 15 16 23 32 32 28 27 23 19 20 21 19 17 17 13 11 10 12 8 5 6 8 10 12 13 16 18 20 21 21 21 21 19 17
5 6 3 4 2 4 11 6 7 7 11 11 10 12 13 15 15 14 23 28 24 21 19 17 16 15 12 9 7 6 4 2 4 8 8 8 7 9 11 15 17 18 18 19 19 18 17 14 14
2 3 3 3 3 4 3 4 2 4 10 11 10 11 12 13 11 14 20 22 21 19 17 15 11 9 6 2 3 4 2 1 0 1 3 5 8 12 15 16 17 17 17 17 17 17 15 14 11
3 1 1 1 3 3 3 6 4 6 9 10 7 9 9 9 12 9 17 19 16 14 11 8 5 3 2 1 2 3 4 6 7 3 1 4 10 12 15 15 15 15 15 13 13 12 11 10 8
2 1 6 4 3 3 4 5 5 4 6 5 5 7 8 8 7 11 14 15 13 9 7 6 8 6 2 3 3 3 6 8 5 3 8 11 9 9 10 11 13 14 11 13 13 11 11 12 16
7 5 3 4 4 4 5 5 1 3 8 13 11 8 7 8 8 7 10 10 8 3 3 4 7 12 8 6 6 5 3 2 3 6 10 11 6 3 7 12 12 11 13 16 15 15 16 17 18
4 4 4 4 2 3 5 3 4 5 12 9 8 8 7 6 6 6 11 12 15 15 16 13 13 13 11 7 5 4 3 5 6 5 3 6 3 1 7 9 8 12 14 14 14 15 15 16 16
3 4 4 6 3 3 1 3 3 8 6 8 6 6 6 10 9 11 19 18 17 16 15 13 11 9 7 4 3 5 5 5 8 9 10 9 7 6 6 5 7 9 11 12 11 12 14 14 16
6 2 4 4 2 1 3 2 4 4 6 7 9 10 8 8 8 7 16 18 17 15 13 10 8 9 5 2 5 7 8 9 13 13 12 9 9 8 6 9 8 6 7 9 10 11 12 10 7
5 3 5 4 3 4 2 5 4 7 7 11 8 7 6 7 7 7 14 17 14 10 11 12 12 12 5 6 12 13 14 16 13 10 9 10 8 8 14 9 6 9 8 8 10 13 8 7 9
2 3 4 4 2 2 4 4 4 10 9 12 9 8 8 8 8 8 9 10 10 12 13 14 13 12 10 16 13 12 16 11 9 8 11 16 15 8 15 9 7 8 9 11 13 14 10 9 10
Wind_Direction
299 330 319 20 63 65 262 269 189 61 56 33 82 90 107 45 90 139 123 155 141 135 135 132 129 125 121 119 117 112 108 104 101 96 90 81 74 69 64 59 56 50 47 44 41 35 34 30 29
327 40 77 49 97 210 273 145 91 101 116 111 77 80 59 62 44 106 110 142 143 137 138 137 132 127 124 122 119 115 112 107 101 93 84 76 73 71 69 66 59 55 50 45 39 31 31 27 27
7 79 96 138 172 194 171 165 126 127 145 140 106 52 73 121 126 140 142 148 141 138 141 138 135 132 130 126 121 118 112 109 104 98 91 87 84 81 76 72 65 60 53 43 34 23 25 19 19
119 54 12 117 238 234 190 184 105 106 99 93 128 68 64 129 125 137 147 146 142 142 141 139 138 135 130 124 121 120 117 116 108 97 95 96 92 85 77 65 56 51 44 40 32 23 20 14 13
93 83 42 357 307 17 25 127 124 117 101 96 112 114 88 76 131 142 142 141 138 140 139 137 137 133 128 126 123 122 118 113 107 105 105 95 84 74 72 62 58 51 44 32 30 22 13 9 14
21 104 61 313 326 39 51 298 97 100 109 107 97 106 75 133 129 141 139 137 135 137 137 135 131 126 130 130 128 125 120 117 114 115 107 98 90 80 69 60 53 48 42 36 38 32 24 20 25
119 86 213 178 158 341 270 241 104 129 125 77 157 115 112 134 136 136 134 134 135 135 133 131 128 125 122 124 125 125 123 120 121 116 116 102 93 75 73 58 58 44 44 48 32 32 24 21 22
131 116 2 261 109 307 258 66 94 98 75 118 126 142 151 153 142 135 133 136 139 137 136 132 127 119 119 122 125 126 122 117 117 120 127 102 97 76 74 64 47 35 34 35 25 29 15 14 4
166 72 256 201 149 182 209 94 34 72 115 4 248 133 143 148 141 136 141 148 148 150 145 139 133 126 123 125 128 128 120 126 124 126 135 112 115 93 62 32 37 24 14 19 15 14 2 0 355
135 171 219 256 175 205 126 120 144 105 110 57 76 94 134 146 146 144 150 161 164 162 157 151 146 145 139 140 139 138 142 139 131 124 126 143 82 190 73 55 20 15 4 0 354 354 357 352 345
167 218 254 25 119 163 138 112 105 111 51 140 138 144 146 146 153 157 166 171 173 166 165 165 159 152 158 162 160 163 165 161 156 143 131 118 121 125 115 42 9 359 356 346 346 351 349 344 331
160 248 113 13 99 86 146 142 112 176 184 153 151 155 150 160 170 173 177 177 172 168 168 164 162 159 166 164 180 174 189 176 163 154 149 167 164 154 129 13 353 350 349 348 344 339 335 334 328
136 156 87 102 96 94 133 113 131 123 138 148 148 160 166 172 182 187 187 183 170 170 168 161 160 151 150 140 149 163 160 169 168 166 180 208 183 168 108 353 346 347 348 349 341 335 331 330 327
152 124 138 115 130 116 103 72 92 321 137 151 159 175 179 181 191 196 194 188 178 171 167 167 167 170 160 153 158 152 153 167 179 201 210 183 182 168 185 8 7 359 351 342 336 338 335 330 328
136 93 51 137 159 140 116 14 179 157 155 162 178 185 191 195 195 201 202 190 186 173 176 170 161 159 167 158 166 175 158 179 196 201 193 176 175 192 208 317 9 2 349 335 332 332 332 330 326
86 60 89 283 141 315 90 248 255 179 157 175 189 190 198 203 205 212 217 204 175 174 176 166 157 153 161 163 177 186 175 182 191 211 191 178 168 165 142 11 359 349 343 331 325 328 331 329 327
16 190 208 266 204 122 96 274 269 161 172 190 193 189 42 61 54 58 96 158 162 164 165 163 165 210 172 187 198 189 180 161 142 144 129 111 80 24 358 345 342 341 333 332 334 332 335 335 330
254 241 209 173 193 151 129 347 44 200 134 57 67 89 75 71 61 64 74 121 141 147 154 149 160 186 197 201 206 151 105 114 107 92 88 75 49 18 355 356 2 360 348 342 338 338 331 329 329
230 109 123 131 188 140 116 82 23 67 89 93 91 88 85 76 70 72 76 88 111 123 114 120 172 203 195 136 110 101 92 97 90 93 69 47 18 11 10 9 3 360 357 353 343 336 333 332 328
88 93 20 4 8 86 84 50 18 64 74 105 112 105 103 94 77 74 87 92 99 105 107 102 98 104 105 96 83 86 104 95 77 57 36 54 47 30 16 6 1 356 349 341 335 336 336 328 336
33 105 111 169 317 55 108 32 73 53 80 85 82 104 103 108 102 93 93 101 103 102 99 93 88 84 79 85 74 25 360 5 22 71 75 63 33 12 9 2 355 351 351 347 347 345 344 337 338
84 171 151 128 90 166 142 153 30 100 89 93 101 102 108 109 112 114 112 111 116 122 125 121 109 87 83 73 337 316 290 331 29 135 88 29 11 4 355 353 355 358 357 354 350 343 341 339 340
203 284 87 75 103 84 6 96 125 159 120 125 120 118 124 137 130 134 133 132 128 123 119 111 118 106 125 207 248 194 189 177 165 166 248 11 3 354 347 353 352 353 351 353 2 4 7 8 2
310 358 36 51 64 45 288 130 191 204 163 123 101 128 145 140 131 130 132 129 133 136 126 129 109 81 193 185 159 187 172 156 150 50 12 2 16 6 359 356 354 349 351 355 353 351 349 351 343
39 56 11 22 14 209 320 52 215 175 143 138 134 142 148 133 137 143 147 165 158 134 40 44 52 63 81 95 87 86 83 61 13 354 3 324 320 9 355 351 345 347 345 343 338 336 333 334 328
6 106 142 165 175 267 2 58 336 114 118 135 127 151 159 95 67 59 61 73 72 73 62 68 71 66 52 46 75 63 5 329 310 305 283 252 223 306 342 341 337 342 342 346 342 339 337 334 333
313 52 158 105 16 68 275 41 49 129 130 105 103 67 57 87 84 94 91 83 77 72 67 63 55 40 21 39 13 329 316 311 299 261 258 245 234 282 321 337 340 334 333 333 334 335 332 330 330
98 170 43 8 86 98 333 191 197 190 121 102 99 101 97 104 100 82 78 76 78 82 69 45 16 356 335 266 301 300 292 285 270 267 259 242 271 292 318 331 312 317 332 334 337 339 337 330 355
11 23 57 105 108 150 138 269 267 165 139 109 104 128 129 99 90 75 69 74 75 59 32 23 20 12 350 294 307 301 297 296 282 248 262 288 285 327 326 307 302 319 328 335 336 330 329 325 336
126 125 107 108 222 59 136 267 290 129 136 137 149 129 111 100 101 101 89 65 47 33 24 14 16 1 329 320 295 304 314 290 260 267 282 292 287 289 306 284 294 306 313 328 322 307 295 312 332